Flag for U.S.A. Weather past 2 weeks in Honolulu, Hawaii, U.S.A.

Now
73 °F

Partly cloudy.


Feels Like: 74 °F
Forecast: 65 / 80 °F
Wind: 3 mph from Northwest

Location: Honolulu International Airport

Current Time: May 28, 2015 at 4:24:41 AM

Latest Report: May 28, 2015 at 3:53 AM


Visibility: 10 mi

Pressure: 29.93 "Hg

Humidity: 76%

Dew point: 65 °F

Location of HonoluluLocation

Historic Weather in Honolulu — Graph

°F

Honolulu temperature yesterday

Maximum temperature yesterday: 82 °F (at 10:53 AM)
Minimum temperature yesterday: 69 °F (at 5:53 AM)
Average temperature yesterday: 76 °F

Past Weeks' High & Low Weather Summary

 TemperatureHumidityPressure
High84 °F (May 19, 10:53 AM)100% (May 16, 5:53 AM)30.17 "Hg (May 16, 5:53 AM)
Low61 °F (May 16, 5:53 AM)41% (May 25, 9:53 AM)29.89 "Hg (May 27, 3:53 PM)
Average76 °F65%30.03 "Hg
* Reported May 13 2:53 AM — May 28 2:53 AM, Honolulu, Weather by CustomWeather, © 2015

Note: Actual official high and low records may vary slightly from our data, if they occured in-between our weather recording intervals... More about our weather records

Advertising

Honolulu weather history for previous 24 hours

 ConditionsComfort  
Time TempWeatherWind HumidityBarometerVisibility
2:53 AM
Thu, May 28
73 °FPartly cloudy.6 mph76%29.93 "Hg10 mi
1:53 AM74 °FPassing clouds.6 mph71%29.93 "Hg10 mi
12:53 AM74 °FPartly cloudy.5 mph71%29.96 "Hg10 mi
11:53 PM
Wed, May 27
74 °FPassing clouds.3 mph71%29.98 "Hg10 mi
10:53 PM74 °FPassing clouds.9 mph71%29.99 "Hg10 mi
9:53 PM75 °FPassing clouds.8 mph71%29.98 "Hg10 mi
8:53 PM75 °FPassing clouds.9 mph71%29.97 "Hg10 mi
7:53 PM76 °FPassing clouds.8 mph69%29.96 "Hg10 mi
6:53 PM77 °FBroken clouds.9 mph66%29.93 "Hg10 mi
5:53 PM79 °FBroken clouds.8 mph65%29.91 "Hg10 mi
4:53 PM79 °FScattered clouds.9 mph65%29.90 "Hg10 mi
3:53 PM82 °FScattered clouds.10 mph58%29.89 "Hg10 mi
2:53 PM82 °FScattered clouds.14 mph58%29.90 "Hg10 mi
1:53 PM81 °FBroken clouds.12 mph58%29.91 "Hg10 mi
12:53 PM81 °FBroken clouds.8 mph54%29.93 "Hg10 mi
11:53 AM81 °FBroken clouds.7 mph56%29.93 "Hg10 mi
10:53 AM82 °FScattered clouds.9 mph55%29.93 "Hg10 mi
9:53 AM79 °FScattered clouds.6 mph60%29.94 "Hg10 mi
8:53 AM80 °FScattered clouds.No wind54%29.94 "Hg10 mi
7:53 AM76 °FScattered clouds.3 mph64%29.93 "Hg10 mi
6:53 AM73 °FScattered clouds.3 mph74%29.93 "Hg10 mi
5:53 AM69 °FScattered clouds.No wind79%29.92 "Hg10 mi
4:53 AM70 °FPassing clouds.3 mph76%29.91 "Hg10 mi
Weather by CustomWeather, © 2015

See weather overviewHow to use our weather pages